Showing default

FLOCK 4BE 25, 60487

Orbit data source: Space-Track

FLOCK 4BE 25, 60487 is a payload satellite owned by Planet (US) in SSO that was launched on Fri, 16 Aug 2024 UTC via an FALCON 9 launch vehicle from the Air Force Western Test Range (AFWTR). Payload-class satellites include a variety of spacecraft equipped with specific instruments for various scientific and technological missions. These include communications satellites like Starlink; space stations such as the ISS; scientific satellites like the Hubble; Earth observation satellites from companies like Planet Labs, Umbra, and HawkEye 360; GPS; miniature CubeSats for education and research; and military/defense satellites.

Loading next visibility...
Identifier
60487, 2024-149V
Orbit
SSO
Country
Flag of USUS
Related business
Manufacturer
Planet
Mission
Operational Commercial Imaging
Bus & Motor
CUBESAT 3U, Unknown motor
Mass
5.7 kg wet, 5.7 kg dry
Launch date (UTC)
2024-08-16 (1 year ago)
Launch vehicle
FALCON 9
Launch site
Air Force Western Test Range (AFWTR)
Object type
Payload
Rocket body
Debris
Shape & HBR
Box + 2 Pan, 1.0 m
Radar Cross Section
0.072 m², Medium (>0.1 m² and < 1m²)

Expand to show TLE details & history
Last TLE update: 20 hours ago

TLE from 20 hours ago
0 FLOCK 4BE 25
1 60487U 24149V   25347.16794962  .00022142  00000-0  69779-3 0  9992
2 60487  97.3978  64.6980 0002744 178.7940 181.3309 15.32907895 73684
Epoch: 2025-12-13T04:01Z
TLE epoch observation values (Epoch: 2025-12-13T04:01:50.847Z)
Latitude
-0.00003°
Longitude
-77.86296°
Altitude
472.128 km
Speed
7.629 km/s
True Right ascension
04h 18m 47s
True Declination
0° 00' 00"
Sunlit
Object was in full shadow at epoch
Visualization orbit readout
Latitude
Unknown
Longitude
Unknown
Altitude
Unknown
Speed
Unknown
Apparent Right ascension
Unknown
Apparent Declination
Unknown
Sunlit
N/A
Visualization observer readout
Local Sidereal Time
22:54:00
Azimuth
Unknown
Elevation
Unknown
Doppler factor
Unknown
Orbital elements
Apogee altitude
465.967 km
Perigee altitude
462.212 km
Semi-major axis
6,842.227 km
Eccentricity
0.00027
Inclination
97.3978°
RAAN
64.698°
Arg. of periapsis
178.794°
True anomaly
181.33017°
Mean anomaly
181.3309°
Eccentric anomaly
181.33053°
Mean motion
3.83484 °/min
Orbital period
93.88 mins
BSTAR
0.00069779
Loading maneuver chart data...
Computing Atmospheric mass density...
Loading historical data...
Loading historical data...
Loading historical data...
Loading historical data...
Loading historical data...
Loading historical data...
Loading historical data...

Documentation

Showing up to 5 results
|